Year,Month,Day,Hour,Minute,Value (Times are PST for temperature in C)
2012,10,09,00,00,9.40
2012,10,09,00,01,9.40
2012,10,09,00,02,9.40
2012,10,09,00,03,9.40
2012,10,09,00,04,9.40
2012,10,09,00,05,9.30
2012,10,09,00,06,9.30
2012,10,09,00,07,9.30
2012,10,09,00,08,9.30
2012,10,09,00,09,9.30
2012,10,09,00,10,9.30
2012,10,09,00,11,9.20
2012,10,09,00,12,9.20
2012,10,09,00,13,9.30
2012,10,09,00,14,9.30
2012,10,09,00,15,9.40
2012,10,09,00,16,9.50
2012,10,09,00,17,9.50
2012,10,09,00,18,9.60
2012,10,09,00,19,9.70
2012,10,09,00,20,9.70
2012,10,09,00,21,9.70
2012,10,09,00,22,9.70
2012,10,09,00,23,9.70
2012,10,09,00,24,9.70
2012,10,09,00,25,9.70
2012,10,09,00,26,9.70
2012,10,09,00,27,9.70
2012,10,09,00,28,9.70
2012,10,09,00,29,9.70
2012,10,09,00,30,9.70
2012,10,09,00,31,9.70
2012,10,09,00,32,9.80
2012,10,09,00,33,9.80
2012,10,09,00,34,9.80
2012,10,09,00,35,9.80
2012,10,09,00,36,9.80
2012,10,09,00,37,9.80
2012,10,09,00,38,9.80
2012,10,09,00,39,9.80
2012,10,09,00,40,9.70
2012,10,09,00,41,9.70
2012,10,09,00,42,9.70
2012,10,09,00,43,9.70
2012,10,09,00,44,9.70
2012,10,09,00,45,9.70
2012,10,09,00,46,9.70
2012,10,09,00,47,9.70
2012,10,09,00,48,9.70
2012,10,09,00,49,9.70
2012,10,09,00,50,9.60
2012,10,09,00,51,9.60
2012,10,09,00,52,9.60
2012,10,09,00,53,9.60
2012,10,09,00,54,9.60
2012,10,09,00,55,9.60
2012,10,09,00,56,9.50
2012,10,09,00,57,9.50
2012,10,09,00,58,9.40
2012,10,09,00,59,9.40
2012,10,09,01,00,9.30
2012,10,09,01,01,9.20
2012,10,09,01,02,9.20
2012,10,09,01,03,9.10
2012,10,09,01,04,9.00
2012,10,09,01,05,9.00
2012,10,09,01,06,8.90
2012,10,09,01,07,8.90
2012,10,09,01,08,8.80
2012,10,09,01,09,8.80
2012,10,09,01,10,8.80
2012,10,09,01,11,8.70
2012,10,09,01,12,8.70
2012,10,09,01,13,8.70
2012,10,09,01,14,8.70
2012,10,09,01,15,8.70
2012,10,09,01,16,8.70
2012,10,09,01,17,8.70
2012,10,09,01,18,8.70
2012,10,09,01,19,8.70
2012,10,09,01,20,8.70
2012,10,09,01,21,8.70
2012,10,09,01,22,8.60
2012,10,09,01,23,8.60
2012,10,09,01,24,8.60
2012,10,09,01,25,8.60
2012,10,09,01,26,8.60
2012,10,09,01,27,8.60
2012,10,09,01,28,8.60
2012,10,09,01,29,8.60
2012,10,09,01,30,8.70
2012,10,09,01,31,8.70
2012,10,09,01,32,8.70
2012,10,09,01,33,8.60
2012,10,09,01,34,8.60
2012,10,09,01,35,8.60
2012,10,09,01,36,8.60
2012,10,09,01,37,8.60
2012,10,09,01,38,8.60
2012,10,09,01,39,8.60
2012,10,09,01,40,8.60
2012,10,09,01,41,8.60
2012,10,09,01,42,8.60
2012,10,09,01,43,8.70
2012,10,09,01,44,8.70
2012,10,09,01,45,8.60
2012,10,09,01,46,8.60
2012,10,09,01,47,8.60
2012,10,09,01,48,8.60
2012,10,09,01,49,8.50
2012,10,09,01,50,8.50
2012,10,09,01,51,8.50
2012,10,09,01,52,8.50
2012,10,09,01,53,8.50
2012,10,09,01,54,8.50
2012,10,09,01,55,8.50
2012,10,09,01,56,8.50
2012,10,09,01,57,8.50
2012,10,09,01,58,8.40
2012,10,09,01,59,8.40
2012,10,09,02,00,8.40
2012,10,09,02,01,8.40
2012,10,09,02,02,8.40
2012,10,09,02,03,8.40
2012,10,09,02,04,8.40
2012,10,09,02,05,8.30
2012,10,09,02,06,8.30
2012,10,09,02,07,8.30
2012,10,09,02,08,8.30
2012,10,09,02,09,8.30
2012,10,09,02,10,8.30
2012,10,09,02,11,8.30
2012,10,09,02,12,8.30
2012,10,09,02,13,8.30
2012,10,09,02,14,8.30
2012,10,09,02,15,8.30
2012,10,09,02,16,8.20
2012,10,09,02,17,8.20
2012,10,09,02,18,8.20
2012,10,09,02,19,8.20
2012,10,09,02,20,8.20
2012,10,09,02,21,8.20
2012,10,09,02,22,8.20
2012,10,09,02,23,8.20
2012,10,09,02,24,8.20
2012,10,09,02,25,8.10
2012,10,09,02,26,8.10
2012,10,09,02,27,8.10
2012,10,09,02,28,8.10
2012,10,09,02,29,8.10
2012,10,09,02,30,8.10
2012,10,09,02,31,8.10
2012,10,09,02,32,8.00
2012,10,09,02,33,8.00
2012,10,09,02,34,7.90
2012,10,09,02,35,7.90
2012,10,09,02,36,7.90
2012,10,09,02,37,7.90
2012,10,09,02,38,8.00
2012,10,09,02,39,8.00
2012,10,09,02,40,8.00
2012,10,09,02,41,7.90
2012,10,09,02,42,7.90
2012,10,09,02,43,7.90
2012,10,09,02,44,7.80
2012,10,09,02,45,7.80
2012,10,09,02,46,7.80
2012,10,09,02,47,7.80
2012,10,09,02,48,7.80
2012,10,09,02,49,7.80
2012,10,09,02,50,7.80
2012,10,09,02,51,7.80
2012,10,09,02,52,7.80
2012,10,09,02,53,7.80
2012,10,09,02,54,7.80
2012,10,09,02,55,7.80
2012,10,09,02,56,7.80
2012,10,09,02,57,7.80
2012,10,09,02,58,7.80
2012,10,09,02,59,7.80
2012,10,09,03,00,7.80
2012,10,09,03,01,7.80
2012,10,09,03,02,7.80
2012,10,09,03,03,7.80
2012,10,09,03,04,7.80
2012,10,09,03,05,7.80
2012,10,09,03,06,7.80
2012,10,09,03,07,7.80
2012,10,09,03,08,7.80
2012,10,09,03,09,7.80
2012,10,09,03,10,7.90
2012,10,09,03,11,7.90
2012,10,09,03,12,7.90
2012,10,09,03,13,7.90
2012,10,09,03,14,7.90
2012,10,09,03,15,7.90
2012,10,09,03,16,8.00
2012,10,09,03,17,8.00
2012,10,09,03,18,8.00
2012,10,09,03,19,8.00
2012,10,09,03,20,7.90
2012,10,09,03,21,7.90
2012,10,09,03,22,7.90
2012,10,09,03,23,7.90
2012,10,09,03,24,7.90
2012,10,09,03,25,7.90
2012,10,09,03,26,8.00
2012,10,09,03,27,8.00
2012,10,09,03,28,8.00
2012,10,09,03,29,8.00
2012,10,09,03,30,8.10
2012,10,09,03,31,8.20
2012,10,09,03,32,8.20
2012,10,09,03,33,8.10
2012,10,09,03,34,8.10
2012,10,09,03,35,8.20
2012,10,09,03,36,8.20
2012,10,09,03,37,8.10
2012,10,09,03,38,8.10
2012,10,09,03,39,8.10
2012,10,09,03,40,8.10
2012,10,09,03,41,8.10
2012,10,09,03,42,8.00
2012,10,09,03,43,8.00
2012,10,09,03,44,8.00
2012,10,09,03,45,7.90
2012,10,09,03,46,7.90
2012,10,09,03,47,7.90
2012,10,09,03,48,7.90
2012,10,09,03,49,7.90
2012,10,09,03,50,8.00
2012,10,09,03,51,8.00
2012,10,09,03,52,8.00
2012,10,09,03,53,8.00
2012,10,09,03,54,8.00
2012,10,09,03,55,8.00
2012,10,09,03,56,8.00
2012,10,09,03,57,8.00
2012,10,09,03,58,8.00
2012,10,09,03,59,7.90
2012,10,09,04,00,7.90
2012,10,09,04,01,7.90
2012,10,09,04,02,7.80
2012,10,09,04,03,7.80
2012,10,09,04,04,7.70
2012,10,09,04,05,7.70
2012,10,09,04,06,7.60
2012,10,09,04,07,7.60
2012,10,09,04,08,7.50
2012,10,09,04,09,7.50
2012,10,09,04,10,7.40
2012,10,09,04,11,7.40
2012,10,09,04,12,7.40
2012,10,09,04,13,7.40
2012,10,09,04,14,7.40
2012,10,09,04,15,7.30
2012,10,09,04,16,7.30
2012,10,09,04,17,7.30
2012,10,09,04,18,7.30
2012,10,09,04,19,7.30
2012,10,09,04,20,7.30
2012,10,09,04,21,7.20
2012,10,09,04,22,7.20
2012,10,09,04,23,7.20
2012,10,09,04,24,7.20
2012,10,09,04,25,7.10
2012,10,09,04,26,7.10
2012,10,09,04,27,7.10
2012,10,09,04,28,7.10
2012,10,09,04,29,7.10
2012,10,09,04,30,7.10
2012,10,09,04,31,7.10
2012,10,09,04,32,7.10
2012,10,09,04,33,7.10
2012,10,09,04,34,7.10
2012,10,09,04,35,7.00
2012,10,09,04,36,7.00
2012,10,09,04,37,7.00
2012,10,09,04,38,7.10
2012,10,09,04,39,7.10
2012,10,09,04,40,7.10
2012,10,09,04,41,7.10
2012,10,09,04,42,7.10
2012,10,09,04,43,7.20
2012,10,09,04,44,7.20
2012,10,09,04,45,7.20
2012,10,09,04,46,7.20
2012,10,09,04,47,7.20
2012,10,09,04,48,7.20
2012,10,09,04,49,7.20
2012,10,09,04,50,7.20
2012,10,09,04,51,7.20
2012,10,09,04,52,7.20
2012,10,09,04,53,7.20
2012,10,09,04,54,7.20
2012,10,09,04,55,7.20
2012,10,09,04,56,7.20
2012,10,09,04,57,7.20
2012,10,09,04,58,7.20
2012,10,09,04,59,7.20
2012,10,09,05,00,7.10
2012,10,09,05,01,7.10
2012,10,09,05,02,7.10
2012,10,09,05,03,7.10
2012,10,09,05,04,7.10
2012,10,09,05,05,7.10
2012,10,09,05,06,7.10
2012,10,09,05,07,7.10
2012,10,09,05,08,7.10
2012,10,09,05,09,7.10
2012,10,09,05,10,7.10
2012,10,09,05,11,7.10
2012,10,09,05,12,7.10
2012,10,09,05,13,7.10
2012,10,09,05,14,7.10
2012,10,09,05,15,7.10
2012,10,09,05,16,7.10
2012,10,09,05,17,7.00
2012,10,09,05,18,7.00
2012,10,09,05,19,7.00
2012,10,09,05,20,7.00
2012,10,09,05,21,7.00
2012,10,09,05,22,6.90
2012,10,09,05,23,6.90
2012,10,09,05,24,6.90
2012,10,09,05,25,6.90
2012,10,09,05,26,6.90
2012,10,09,05,27,6.90
2012,10,09,05,28,6.90
2012,10,09,05,29,6.90
2012,10,09,05,30,6.90
2012,10,09,05,31,6.90
2012,10,09,05,32,6.90
2012,10,09,05,33,6.90
2012,10,09,05,34,6.90
2012,10,09,05,35,6.90
2012,10,09,05,36,6.90
2012,10,09,05,37,6.90
2012,10,09,05,38,6.90
2012,10,09,05,39,6.90
2012,10,09,05,40,6.90
2012,10,09,05,41,6.90
2012,10,09,05,42,6.90
2012,10,09,05,43,6.90
2012,10,09,05,44,6.90
2012,10,09,05,45,6.90
2012,10,09,05,46,6.80
2012,10,09,05,47,6.80
2012,10,09,05,48,6.80
2012,10,09,05,49,6.80
2012,10,09,05,50,6.80
2012,10,09,05,51,6.80
2012,10,09,05,52,6.80
2012,10,09,05,53,6.80
2012,10,09,05,54,6.80
2012,10,09,05,55,6.80
2012,10,09,05,56,6.80
2012,10,09,05,57,6.80
2012,10,09,05,58,6.80
2012,10,09,05,59,6.80
2012,10,09,06,00,6.80
2012,10,09,06,01,6.80
2012,10,09,06,02,6.80
2012,10,09,06,03,6.80
2012,10,09,06,04,6.80
2012,10,09,06,05,6.80
2012,10,09,06,06,6.80
2012,10,09,06,07,6.80
2012,10,09,06,08,6.80
2012,10,09,06,09,6.80
2012,10,09,06,10,6.80
2012,10,09,06,11,6.80
2012,10,09,06,12,6.80
2012,10,09,06,13,6.80
2012,10,09,06,14,6.80
2012,10,09,06,15,6.80
2012,10,09,06,16,6.80
2012,10,09,06,17,6.80
2012,10,09,06,18,6.80
2012,10,09,06,19,6.80
2012,10,09,06,20,6.80
2012,10,09,06,21,6.80
2012,10,09,06,22,6.80
2012,10,09,06,23,6.80
2012,10,09,06,24,6.80
2012,10,09,06,25,6.80
2012,10,09,06,26,6.80
2012,10,09,06,27,6.70
2012,10,09,06,28,6.70
2012,10,09,06,29,6.70
2012,10,09,06,30,6.60
2012,10,09,06,31,6.60
2012,10,09,06,32,6.70
2012,10,09,06,33,6.70
2012,10,09,06,34,6.70
2012,10,09,06,35,6.70
2012,10,09,06,36,6.80
2012,10,09,06,37,6.80
2012,10,09,06,38,6.80
2012,10,09,06,39,6.80
2012,10,09,06,40,6.80
2012,10,09,06,41,6.80
2012,10,09,06,42,6.80
2012,10,09,06,43,6.80
2012,10,09,06,44,6.70
2012,10,09,06,45,6.70
2012,10,09,06,46,6.70
2012,10,09,06,47,6.60
2012,10,09,06,48,6.60
2012,10,09,06,49,6.60
2012,10,09,06,50,6.70
2012,10,09,06,51,6.70
2012,10,09,06,52,6.70
2012,10,09,06,53,6.60
2012,10,09,06,54,6.70
2012,10,09,06,55,6.70
2012,10,09,06,56,6.70
2012,10,09,06,57,6.70
2012,10,09,06,58,6.70
2012,10,09,06,59,6.70
2012,10,09,07,00,6.70
2012,10,09,07,01,6.70
2012,10,09,07,02,6.70
2012,10,09,07,03,6.70
2012,10,09,07,04,6.70
2012,10,09,07,05,6.70
2012,10,09,07,06,6.80
2012,10,09,07,07,6.80
2012,10,09,07,08,6.80
2012,10,09,07,09,6.80
2012,10,09,07,10,6.80
2012,10,09,07,11,6.80
2012,10,09,07,12,6.70
2012,10,09,07,13,6.70
2012,10,09,07,14,6.70
2012,10,09,07,15,6.70
2012,10,09,07,16,6.70
2012,10,09,07,17,6.80
2012,10,09,07,18,6.80
2012,10,09,07,19,6.80
2012,10,09,07,20,6.80
2012,10,09,07,21,6.80
2012,10,09,07,22,6.80
2012,10,09,07,23,6.80
2012,10,09,07,24,6.80
2012,10,09,07,25,6.80
2012,10,09,07,26,6.80
2012,10,09,07,27,6.80
2012,10,09,07,28,6.80
2012,10,09,07,29,6.80
2012,10,09,07,30,6.80
2012,10,09,07,31,6.80
2012,10,09,07,32,6.90
2012,10,09,07,33,6.90
2012,10,09,07,34,6.90
2012,10,09,07,35,6.90
2012,10,09,07,36,6.90
2012,10,09,07,37,7.00
2012,10,09,07,38,7.00
2012,10,09,07,39,7.20
2012,10,09,07,40,7.40
2012,10,09,07,41,7.60
2012,10,09,07,42,7.70
2012,10,09,07,43,7.80
2012,10,09,07,44,7.80
2012,10,09,07,45,7.90
2012,10,09,07,46,7.90
2012,10,09,07,47,8.00
2012,10,09,07,48,8.00
2012,10,09,07,49,8.00
2012,10,09,07,50,8.10
2012,10,09,07,51,8.20
2012,10,09,07,52,8.20
2012,10,09,07,53,8.20
2012,10,09,07,54,8.20
2012,10,09,07,55,8.30
2012,10,09,07,56,8.30
2012,10,09,07,57,8.30
2012,10,09,07,58,8.30
2012,10,09,07,59,8.30
2012,10,09,08,00,8.30
2012,10,09,08,01,8.30
2012,10,09,08,02,8.30
2012,10,09,08,03,8.30
2012,10,09,08,04,8.30
2012,10,09,08,05,8.30
2012,10,09,08,06,8.40
2012,10,09,08,07,8.40
2012,10,09,08,08,8.40
2012,10,09,08,09,8.50
2012,10,09,08,10,8.60
2012,10,09,08,11,8.70
2012,10,09,08,12,8.80
2012,10,09,08,13,9.00
2012,10,09,08,14,9.00
2012,10,09,08,15,9.10
2012,10,09,08,16,9.20
2012,10,09,08,17,9.20
2012,10,09,08,18,9.20
2012,10,09,08,19,9.30
2012,10,09,08,20,9.30
2012,10,09,08,21,9.30
2012,10,09,08,22,9.40
2012,10,09,08,23,9.50
2012,10,09,08,24,9.50
2012,10,09,08,25,9.60
2012,10,09,08,26,9.60
2012,10,09,08,27,9.70
2012,10,09,08,28,9.70
2012,10,09,08,29,9.70
2012,10,09,08,30,9.70
2012,10,09,08,31,9.70
2012,10,09,08,32,9.70
2012,10,09,08,33,9.70
2012,10,09,08,34,9.70
2012,10,09,08,35,9.70
2012,10,09,08,36,9.70
2012,10,09,08,37,9.70
2012,10,09,08,38,9.70
2012,10,09,08,39,9.70
2012,10,09,08,40,9.70
2012,10,09,08,41,9.70
2012,10,09,08,42,9.70
2012,10,09,08,43,9.70
2012,10,09,08,44,9.80
2012,10,09,08,45,9.80
2012,10,09,08,46,9.80
2012,10,09,08,47,9.90
2012,10,09,08,48,9.90
2012,10,09,08,49,9.90
2012,10,09,08,50,9.90
2012,10,09,08,51,9.90
2012,10,09,08,52,10.00
2012,10,09,08,53,10.10
2012,10,09,08,54,10.10
2012,10,09,08,55,10.10
2012,10,09,08,56,10.10
2012,10,09,08,57,10.10
2012,10,09,08,58,10.10
2012,10,09,08,59,10.10
2012,10,09,09,00,10.10
2012,10,09,09,01,10.10
2012,10,09,09,02,10.20
2012,10,09,09,03,10.20
2012,10,09,09,04,10.20
2012,10,09,09,05,10.20
2012,10,09,09,06,10.20
2012,10,09,09,07,10.20
2012,10,09,09,08,10.20
2012,10,09,09,09,10.20
2012,10,09,09,10,10.20
2012,10,09,09,11,10.20
2012,10,09,09,12,10.30
2012,10,09,09,13,10.30
2012,10,09,09,14,10.30
2012,10,09,09,15,10.30
2012,10,09,09,16,10.30
2012,10,09,09,17,10.30
2012,10,09,09,18,10.30
2012,10,09,09,19,10.30
2012,10,09,09,20,10.30
2012,10,09,09,21,10.30
2012,10,09,09,22,10.30
2012,10,09,09,23,10.30
2012,10,09,09,24,10.40
2012,10,09,09,25,10.40
2012,10,09,09,26,10.40
2012,10,09,09,27,10.40
2012,10,09,09,28,10.40
2012,10,09,09,29,10.40
2012,10,09,09,30,10.40
2012,10,09,09,31,10.40
2012,10,09,09,32,10.40
2012,10,09,09,33,10.40
2012,10,09,09,34,10.40
2012,10,09,09,35,10.40
2012,10,09,09,36,10.50
2012,10,09,09,37,10.60
2012,10,09,09,38,10.60
2012,10,09,09,39,10.60
2012,10,09,09,40,10.60
2012,10,09,09,41,10.60
2012,10,09,09,42,10.60
2012,10,09,09,43,10.60
2012,10,09,09,44,10.60
2012,10,09,09,45,10.60
2012,10,09,09,46,10.60
2012,10,09,09,47,10.60
2012,10,09,09,48,10.60
2012,10,09,09,49,10.70
2012,10,09,09,50,10.70
2012,10,09,09,51,10.70
2012,10,09,09,52,10.70
2012,10,09,09,53,10.80
2012,10,09,09,54,10.80
2012,10,09,09,55,10.90
2012,10,09,09,56,10.90
2012,10,09,09,57,10.90
2012,10,09,09,58,10.90
2012,10,09,09,59,10.90
2012,10,09,10,00,10.90
2012,10,09,10,01,10.90
2012,10,09,10,02,10.90
2012,10,09,10,03,10.90
2012,10,09,10,04,10.90
2012,10,09,10,05,10.90
2012,10,09,10,06,10.90
2012,10,09,10,07,10.90
2012,10,09,10,08,10.90
2012,10,09,10,09,10.90
2012,10,09,10,10,10.90
2012,10,09,10,11,10.90
2012,10,09,10,12,10.90
2012,10,09,10,13,10.90
2012,10,09,10,14,10.90
2012,10,09,10,15,10.90
2012,10,09,10,16,10.90
2012,10,09,10,17,10.90
2012,10,09,10,18,10.90
2012,10,09,10,19,10.90
2012,10,09,10,20,10.90
2012,10,09,10,21,10.90
2012,10,09,10,22,10.90
2012,10,09,10,23,11.10
2012,10,09,10,24,11.10
2012,10,09,10,25,11.10
2012,10,09,10,26,11.10
2012,10,09,10,27,11.20
2012,10,09,10,28,11.20
2012,10,09,10,29,11.30
2012,10,09,10,30,11.40
2012,10,09,10,31,11.40
2012,10,09,10,32,11.40
2012,10,09,10,33,11.60
2012,10,09,10,34,11.60
2012,10,09,10,35,11.40
2012,10,09,10,36,11.40
2012,10,09,10,37,11.40
2012,10,09,10,38,11.40
2012,10,09,10,39,11.50
2012,10,09,10,40,11.60
2012,10,09,10,41,11.60
2012,10,09,10,42,11.70
2012,10,09,10,43,11.70
2012,10,09,10,44,11.80
2012,10,09,10,45,11.80
2012,10,09,10,46,11.80
2012,10,09,10,47,11.80
2012,10,09,10,48,11.80
2012,10,09,10,49,11.80
2012,10,09,10,50,11.80
2012,10,09,10,51,11.70
2012,10,09,10,52,11.80
2012,10,09,10,53,11.80
2012,10,09,10,54,11.80
2012,10,09,10,55,11.80
2012,10,09,10,56,11.80
2012,10,09,10,57,11.80
2012,10,09,10,58,11.80
2012,10,09,10,59,11.80
2012,10,09,11,00,11.80
2012,10,09,11,01,11.90
2012,10,09,11,02,11.90
2012,10,09,11,03,11.90
2012,10,09,11,04,11.90
2012,10,09,11,05,11.90
2012,10,09,11,06,11.90
2012,10,09,11,07,11.90
2012,10,09,11,08,11.90
2012,10,09,11,09,11.90
2012,10,09,11,10,11.90
2012,10,09,11,11,12.00
2012,10,09,11,12,12.00
2012,10,09,11,13,12.10
2012,10,09,11,14,12.10
2012,10,09,11,15,12.10
2012,10,09,11,16,12.10
2012,10,09,11,17,12.10
2012,10,09,11,18,12.10
2012,10,09,11,19,12.10
2012,10,09,11,20,12.10
2012,10,09,11,21,12.10
2012,10,09,11,22,12.10
2012,10,09,11,23,12.10
2012,10,09,11,24,12.20
2012,10,09,11,25,12.20
2012,10,09,11,26,12.30
2012,10,09,11,27,12.30
2012,10,09,11,28,12.50
2012,10,09,11,29,12.50
2012,10,09,11,30,12.50
2012,10,09,11,31,12.40
2012,10,09,11,32,12.40
2012,10,09,11,33,12.50
2012,10,09,11,34,12.60
2012,10,09,11,35,12.60
2012,10,09,11,36,12.60
2012,10,09,11,37,12.50
2012,10,09,11,38,12.50
2012,10,09,11,39,12.50
2012,10,09,11,40,12.60
2012,10,09,11,41,12.50
2012,10,09,11,42,12.50
2012,10,09,11,43,12.50
2012,10,09,11,44,12.60
2012,10,09,11,45,12.70
2012,10,09,11,46,12.70
2012,10,09,11,47,12.70
2012,10,09,11,48,12.70
2012,10,09,11,49,12.80
2012,10,09,11,50,12.80
2012,10,09,11,51,12.70
2012,10,09,11,52,12.60
2012,10,09,11,53,12.50
2012,10,09,11,54,12.50
2012,10,09,11,55,12.50
2012,10,09,11,56,12.50
2012,10,09,11,57,12.60
2012,10,09,11,58,12.60
2012,10,09,11,59,12.50
2012,10,09,12,00,12.40
2012,10,09,12,01,12.40
2012,10,09,12,02,12.40
2012,10,09,12,03,12.50
2012,10,09,12,04,12.50
2012,10,09,12,05,12.50
2012,10,09,12,06,12.50
2012,10,09,12,07,12.60
2012,10,09,12,08,12.60
2012,10,09,12,09,12.50
2012,10,09,12,10,12.60
2012,10,09,12,11,12.60
2012,10,09,12,12,12.70
2012,10,09,12,13,12.70
2012,10,09,12,14,12.70
2012,10,09,12,15,12.70
2012,10,09,12,16,12.60
2012,10,09,12,17,12.60
2012,10,09,12,18,12.50
2012,10,09,12,19,12.40
2012,10,09,12,20,12.30
2012,10,09,12,21,12.30
2012,10,09,12,22,12.30
2012,10,09,12,23,12.30
2012,10,09,12,24,12.30
2012,10,09,12,25,12.30
2012,10,09,12,26,12.30
2012,10,09,12,27,12.30
2012,10,09,12,28,12.50
2012,10,09,12,29,12.50
2012,10,09,12,30,12.60
2012,10,09,12,31,12.60
2012,10,09,12,32,12.60
2012,10,09,12,33,12.60
2012,10,09,12,34,12.50
2012,10,09,12,35,12.60
2012,10,09,12,36,12.60
2012,10,09,12,37,12.60
2012,10,09,12,38,12.60
2012,10,09,12,39,12.60
2012,10,09,12,40,12.60
2012,10,09,12,41,12.40
2012,10,09,12,42,12.30
2012,10,09,12,43,12.30
2012,10,09,12,44,12.30
2012,10,09,12,45,12.40
2012,10,09,12,46,12.50
2012,10,09,12,47,12.60
2012,10,09,12,48,12.60
2012,10,09,12,49,12.60
2012,10,09,12,50,12.70
2012,10,09,12,51,12.80
2012,10,09,12,52,12.80
2012,10,09,12,53,12.80
2012,10,09,12,54,12.70
2012,10,09,12,55,12.70
2012,10,09,12,56,12.60
2012,10,09,12,57,12.60
2012,10,09,12,58,12.50
2012,10,09,12,59,12.50
2012,10,09,13,00,12.50
2012,10,09,13,01,12.40
2012,10,09,13,02,12.40
2012,10,09,13,03,12.50
2012,10,09,13,04,12.60
2012,10,09,13,05,12.80
2012,10,09,13,06,12.90
2012,10,09,13,07,12.90
2012,10,09,13,08,12.90
2012,10,09,13,09,12.80
2012,10,09,13,10,12.80
2012,10,09,13,11,12.80
2012,10,09,13,12,12.80
2012,10,09,13,13,12.80
2012,10,09,13,14,12.80
2012,10,09,13,15,12.90
2012,10,09,13,16,13.00
2012,10,09,13,17,13.00
2012,10,09,13,18,13.00
2012,10,09,13,19,13.00
2012,10,09,13,20,13.00
2012,10,09,13,21,12.90
2012,10,09,13,22,12.90
2012,10,09,13,23,12.90
2012,10,09,13,24,12.90
2012,10,09,13,25,12.90
2012,10,09,13,26,13.00
2012,10,09,13,27,13.00
2012,10,09,13,28,12.90
2012,10,09,13,29,12.80
2012,10,09,13,30,12.80
2012,10,09,13,31,12.80
2012,10,09,13,32,12.90
2012,10,09,13,33,12.90
2012,10,09,13,34,12.90
2012,10,09,13,35,13.00
2012,10,09,13,36,13.10
2012,10,09,13,37,13.10
2012,10,09,13,38,13.10
2012,10,09,13,39,13.20
2012,10,09,13,40,13.20
2012,10,09,13,41,13.20
2012,10,09,13,42,13.20
2012,10,09,13,43,13.10
2012,10,09,13,44,13.10
2012,10,09,13,45,13.10
2012,10,09,13,46,13.10
2012,10,09,13,47,13.10
2012,10,09,13,48,13.20
2012,10,09,13,49,13.20
2012,10,09,13,50,13.30
2012,10,09,13,51,13.30
2012,10,09,13,52,13.20
2012,10,09,13,53,13.20
2012,10,09,13,54,13.30
2012,10,09,13,55,13.30
2012,10,09,13,56,13.20
2012,10,09,13,57,13.20
2012,10,09,13,58,13.20
2012,10,09,13,59,13.20
2012,10,09,14,00,13.20
2012,10,09,14,01,13.20
2012,10,09,14,02,13.20
2012,10,09,14,03,13.20
2012,10,09,14,04,13.20
2012,10,09,14,05,13.10
2012,10,09,14,06,13.00
2012,10,09,14,07,13.00
2012,10,09,14,08,13.10
2012,10,09,14,09,13.10
2012,10,09,14,10,13.20
2012,10,09,14,11,13.10
2012,10,09,14,12,13.10
2012,10,09,14,13,13.10
2012,10,09,14,14,13.10
2012,10,09,14,15,13.00
2012,10,09,14,16,13.00
2012,10,09,14,17,12.90
2012,10,09,14,18,12.80
2012,10,09,14,19,12.80
2012,10,09,14,20,12.80
2012,10,09,14,21,12.80
2012,10,09,14,22,12.80
2012,10,09,14,23,12.80
2012,10,09,14,24,12.90
2012,10,09,14,25,12.90
2012,10,09,14,26,12.80
2012,10,09,14,27,12.80
2012,10,09,14,28,12.80
2012,10,09,14,29,12.80
2012,10,09,14,30,12.70
2012,10,09,14,31,12.80
2012,10,09,14,32,12.80
2012,10,09,14,33,12.90
2012,10,09,14,34,13.00
2012,10,09,14,35,13.10
2012,10,09,14,36,13.20
2012,10,09,14,37,13.10
2012,10,09,14,38,13.10
2012,10,09,14,39,13.10
2012,10,09,14,40,13.10
2012,10,09,14,41,13.20
2012,10,09,14,42,13.30
2012,10,09,14,43,13.30
2012,10,09,14,44,13.30
2012,10,09,14,45,13.20
2012,10,09,14,46,13.20
2012,10,09,14,47,13.10
2012,10,09,14,48,13.20
2012,10,09,14,49,13.30
2012,10,09,14,50,13.40
2012,10,09,14,51,13.50
2012,10,09,14,52,13.50
2012,10,09,14,53,13.60
2012,10,09,14,54,13.60
2012,10,09,14,55,13.60
2012,10,09,14,56,13.50
2012,10,09,14,57,13.40
2012,10,09,14,58,13.30
2012,10,09,14,59,13.30
2012,10,09,15,00,13.30
2012,10,09,15,01,13.30
2012,10,09,15,02,13.30
2012,10,09,15,03,13.40
2012,10,09,15,04,13.50
2012,10,09,15,05,13.50
2012,10,09,15,06,13.60
2012,10,09,15,07,13.70
2012,10,09,15,08,13.70
2012,10,09,15,09,13.70
2012,10,09,15,10,13.90
2012,10,09,15,11,13.90
2012,10,09,15,12,14.10
2012,10,09,15,13,14.20
2012,10,09,15,14,14.20
2012,10,09,15,15,14.20
2012,10,09,15,16,14.20
2012,10,09,15,17,14.30
2012,10,09,15,18,14.40
2012,10,09,15,19,14.30
2012,10,09,15,20,14.20
2012,10,09,15,21,14.20
2012,10,09,15,22,14.20
2012,10,09,15,23,14.10
2012,10,09,15,24,14.10
2012,10,09,15,25,14.00
2012,10,09,15,26,14.00
2012,10,09,15,27,14.10
2012,10,09,15,28,14.20
2012,10,09,15,29,14.20
2012,10,09,15,30,14.10
2012,10,09,15,31,14.00
2012,10,09,15,32,14.00
2012,10,09,15,33,14.00
2012,10,09,15,34,13.90
2012,10,09,15,35,13.80
2012,10,09,15,36,13.70
2012,10,09,15,37,13.50
2012,10,09,15,38,13.40
2012,10,09,15,39,13.40
2012,10,09,15,40,13.30
2012,10,09,15,41,13.30
2012,10,09,15,42,13.30
2012,10,09,15,43,13.30
2012,10,09,15,44,13.20
2012,10,09,15,45,13.20
2012,10,09,15,46,13.10
2012,10,09,15,47,13.10
2012,10,09,15,48,13.00
2012,10,09,15,49,13.00
2012,10,09,15,50,12.90
2012,10,09,15,51,12.80
2012,10,09,15,52,12.80
2012,10,09,15,53,12.80
2012,10,09,15,54,12.70
2012,10,09,15,55,12.70
2012,10,09,15,56,12.80
2012,10,09,15,57,12.70
2012,10,09,15,58,12.70
2012,10,09,15,59,12.60
2012,10,09,16,00,12.50
2012,10,09,16,01,12.50
2012,10,09,16,02,12.50
2012,10,09,16,03,12.50
2012,10,09,16,04,12.50
2012,10,09,16,05,12.40
2012,10,09,16,06,12.40
2012,10,09,16,07,12.40
2012,10,09,16,08,12.40
2012,10,09,16,09,12.40
2012,10,09,16,10,12.40
2012,10,09,16,11,12.40
2012,10,09,16,12,12.40
2012,10,09,16,13,12.40
2012,10,09,16,14,12.40
2012,10,09,16,15,12.40
2012,10,09,16,16,12.30
2012,10,09,16,17,12.30
2012,10,09,16,18,12.30
2012,10,09,16,19,12.30
2012,10,09,16,20,12.30
2012,10,09,16,21,12.30
2012,10,09,16,22,12.30
2012,10,09,16,23,12.30
2012,10,09,16,24,12.30
2012,10,09,16,25,12.30
2012,10,09,16,26,12.30
2012,10,09,16,27,12.30
2012,10,09,16,28,12.30
2012,10,09,16,29,12.20
2012,10,09,16,30,12.10
2012,10,09,16,31,12.10
2012,10,09,16,32,12.00
2012,10,09,16,33,12.00
2012,10,09,16,34,12.00
2012,10,09,16,35,12.00
2012,10,09,16,36,12.00
2012,10,09,16,37,12.00
2012,10,09,16,38,12.10
2012,10,09,16,39,12.10
2012,10,09,16,40,12.10
2012,10,09,16,41,12.10
2012,10,09,16,42,12.10
2012,10,09,16,43,12.10
2012,10,09,16,44,12.10
2012,10,09,16,45,12.10
2012,10,09,16,46,12.10
2012,10,09,16,47,12.10
2012,10,09,16,48,12.10
2012,10,09,16,49,12.20
2012,10,09,16,50,12.20
2012,10,09,16,51,12.20
2012,10,09,16,52,12.30
2012,10,09,16,53,12.30
2012,10,09,16,54,12.40
2012,10,09,16,55,12.40
2012,10,09,16,56,12.40
2012,10,09,16,57,12.50
2012,10,09,16,58,12.50
2012,10,09,16,59,12.50
2012,10,09,17,00,12.50
2012,10,09,17,01,12.50
2012,10,09,17,02,12.50
2012,10,09,17,03,12.50
2012,10,09,17,04,12.50
2012,10,09,17,05,12.50
2012,10,09,17,06,12.50
2012,10,09,17,07,12.50
2012,10,09,17,08,12.40
2012,10,09,17,09,12.40
2012,10,09,17,10,12.40
2012,10,09,17,11,12.40
2012,10,09,17,12,12.40
2012,10,09,17,13,12.30
2012,10,09,17,14,12.30
2012,10,09,17,15,12.30
2012,10,09,17,16,12.40
2012,10,09,17,17,12.40
2012,10,09,17,18,12.40
2012,10,09,17,19,12.40
2012,10,09,17,20,12.40
2012,10,09,17,21,12.40
2012,10,09,17,22,12.50
2012,10,09,17,23,12.50
2012,10,09,17,24,12.50
2012,10,09,17,25,12.50
2012,10,09,17,26,12.50
2012,10,09,17,27,12.50
2012,10,09,17,28,12.50
2012,10,09,17,29,12.50
2012,10,09,17,30,12.50
2012,10,09,17,31,12.40
2012,10,09,17,32,12.40
2012,10,09,17,33,12.40
2012,10,09,17,34,12.30
2012,10,09,17,35,12.30
2012,10,09,17,36,12.30
2012,10,09,17,37,12.30
2012,10,09,17,38,12.30
2012,10,09,17,39,12.30
2012,10,09,17,40,12.20
2012,10,09,17,41,12.20
2012,10,09,17,42,12.20